Z-Sat
1 49399U 21102E   25321.83147153  .00006435  00000-0  33639-3 0  9990
2 49399  97.3622 358.5260 0015628 263.7322  96.2131 15.16107962221398
KOSEN 1
1 49402U 21102H   25321.08450449  .00012740  00000-0  54234-3 0  9997
2 49402  97.3515   2.5152 0013517 232.2890 127.7122 15.23039415221694
HO-113
1 50466U 21131B   25321.86283609  .00001067  00000-0  34515-3 0  9999
2 50466  98.5067  50.4091 0004397  27.9158 332.2266 14.41064510204671
SNUGLITE 2
1 52899U 22065F   25321.64689271  .00002050  00000-0  40261-3 0  9997
2 52899  98.1906 102.3254 0006903 336.0999  23.9882 14.63736630180046
UmKA 1 (RS40S)
1 57172U 23091G   25321.82389898  .00009044  00000-0  45052-3 0  9991
2 57172  97.5388  16.4012 0014797 131.7979 228.4522 15.17706578131910
CubeBel-2 (EU11S)
1 57175U 23091K   25321.82917000  .00015952  00000-0  67582-3 0  9993
2 57175  97.5384  18.6787 0012164 134.6151 225.6080 15.23170960132064
SONATE-2
1 59112U 24043Q   25321.83328536  .00030607  00000-0  68613-3 0  9995
2 59112  97.5318  97.1921 0008778 254.9419 105.0857 15.43331380 95131
MO-122
1 60209U 24125G   25321.85605242  .00036477  00000-0  78971-3 0  9998
2 60209  97.2555 172.2440 0013736 278.0237  81.9453 15.44268981 76765
GRBBeta
1 60237U 24128C   25321.76271032  .00007256  00000-0  51308-3 0  9996
2 60237  61.9907 236.9082 0056917  91.5146 269.2466 15.04424400 74433
Curium One
1 60242U 24128H   25321.34272918  .00014608  00000-0  91508-3 0  9995
2 60242  61.9801 233.8349 0056798  88.2547 272.5051 15.08273224 74458
ROBUSTA-3A
1 60243U 24128J   25321.73361198  .00013300  00000-0  84824-3 0  9999
2 60243  61.9876 233.8870 0056753  85.8181 274.9395 15.07683923 74499
CatSat
1 60246U 24125J   25321.84220875  .00040717  00000-0  10571-2 0  9996
2 60246  97.2361 169.5314 0033829 236.3866 123.4150 15.38264783 74695
HYPERVIEW-1G (RS66S)
1 61772U 24199AP  25321.83141574  .00043951  00000-0  91786-3 0  9990
2 61772  97.3244 190.9993 0010461 344.5823  15.5105 15.45334708101767
AO-123
1 61781U 24199AY  25321.84554498  .00012273  00000-0  40730-3 0  9990
2 61781  97.3277 187.5774 0014796 352.6206   7.4816 15.31271743101530
ZIMSAT 2
1 61783U 24199BA  25321.83807664  .00154995  00000-0  16528-2 0  9992
2 61783  97.3151 193.7594 0006641 347.9431  12.1668 15.63429067105103
HADES-R (SO-124)
1 62690U 25009CK  25321.27250548  .00157854  00000-0  27093-2 0  9998
2 62690  97.3933  43.0833 0003045 246.4607 113.6325 15.50592388 46828
HYDRA-T
1 62692U 25009CM  25321.27341305  .00168739  00000-0  27865-2 0  9993
2 62692  97.3928  43.2338 0002825 245.8581 114.2376 15.51642389 46837
JINJUSat 1B
1 63210U 25052A   25321.67293007  .00020911  00000-0  82381-3 0  9991
2 63210  97.4212 214.0046 0005896 102.4838 257.7060 15.25609001 37769
NUSHSAT 1
1 63211U 25052B   25321.68399633  .00023379  00000-0  89637-3 0  9997
2 63211  97.4196 214.1061 0005828 104.8162 255.3722 15.26490897 37772
TEVEL2-4
1 63213U 25052D   25321.21551930  .00025744  00000-0  10049-2 0  9996
2 63213  97.4114 213.2441 0004634 114.1647 246.0076 15.25880932 37694
TEVEL2-5
1 63214U 25052E   25321.21984360  .00025743  00000-0  10067-2 0  9993
2 63214  97.4106 213.2405 0004710 116.5348 243.6373 15.25819930 37698
TEVEL2-6
1 63215U 25052F   25321.22635614  .00025612  00000-0  10030-2 0  9995
2 63215  97.4117 213.2345 0004698 114.7120 245.4608 15.25771523 37693
TEVEL2-1
1 63217U 25052H   25321.65736830  .00022101  00000-0  87379-3 0  9997
2 63217  97.4090 213.4942 0004367 123.6735 236.4920 15.25484844 37755
TEVEL2-3
1 63218U 25052J   25321.65689015  .00022288  00000-0  88071-3 0  9996
2 63218  97.4091 213.4981 0004377 125.0370 235.1280 15.25502123 37758
TEVEL2-2
1 63219U 25052K   25321.65815118  .00022390  00000-0  88515-3 0  9999
2 63219  97.4081 213.4943 0004370 124.7407 235.4243 15.25485275 37756
TEVEL2-9
1 63237U 25052AD  25321.66275463  .00021037  00000-0  86781-3 0  9993
2 63237  97.4160 213.2406 0007486 153.5333 206.6288 15.24052667 37725
TEVEL2-7
1 63238U 25052AE  25321.67434493  .00019853  00000-0  82249-3 0  9993
2 63238  97.4158 213.2308 0007560 153.5414 206.6210 15.23919960 37729
TEVEL2-8
1 63239U 25052AF  25321.15423391  .00023077  00000-0  95653-3 0  9998
2 63239  97.4156 212.7019 0007573 155.6073 204.5524 15.23871566 37644
HYDRA-W
1 63490U 25052BL  25320.43515826  .00089200  00000-0  24303-2 0  9995
2 63490  97.4083 213.9287 0009425 141.8669 218.3244 15.37098610 37679
HADES-ICM (SO-125)
1 63492U 25052BN  25321.24797996  .00079242  00000-0  22577-2 0  9993
2 63492  97.4102 214.5427 0009495 145.2645 214.9221 15.35744764 37780
Dragonfly
1 65729U 98067XH  25321.04551231  .00142893  00000-0  14719-2 0  9994
2 65729  51.6300 266.4665 0004940 134.2997 225.8403 15.63847935  9131
RSP-03
1 65732U 98067XL  25321.13502295  .00123990  00000-0  13664-2 0  9999
2 65732  51.6296 266.3140 0006533 117.5844 242.5814 15.62183616  9153
GHS-01
1 65733U 98067XM  25321.85812083  .00151623  00000-0  14701-2 0  9995
2 65733  51.6300 262.1456 0005950 141.1522 218.9902 15.65336404  9278
BOTAN
1 65942U 98067XP  25321.02797974  .00105692  00000-0  14084-2 0  9996
2 65942  51.6307 268.5992 0004696  89.3927 270.7602 15.57284856  5857
CEVROSAT1
1 98526C 25248E   25306.26352486  .00003971  00000+0  19360-3 0    07
2 98526  45.4084 255.8570 0001315 254.8982 118.2631 15.17600497    10
